EW0362 Weather Reports


time (UTC)temp
F
wind
direction
speed
knots
gust
knots
rain 1hr
in
rain 24hr
in
rain mn
in
humidity
%
barometer
mb
20260905081204 59 81 0.0 0.0 0.00 0.00 0.00 95 1008.0
20260905080204 60 81 0.0 0.0 0.00 0.00 0.00 94 1008.0
20260905072204 60 80 0.0 0.0 0.00 0.00 0.00 94 1008.1
20260905071704 60 81 0.0 0.0 0.00 0.00 0.00 94 1008.2
20260905070204 60 81 0.0 0.0 0.00 0.00 0.00 94 1008.3
20260905064204 61 80 0.0 0.0 0.00 0.00 0.00 94 1008.4
20260905063203 61 80 0.0 0.0 0.00 0.00 0.00 94 1008.5
20260905062204 61 81 0.0 0.0 0.00 0.00 0.00 94 1008.4
20260905061704 61 80 0.0 0.0 0.00 0.00 0.00 94 1008.5
20260905060204 61 80 0.0 0.0 0.00 0.00 0.00 94 1008.7
20260905055703 61 81 0.0 0.0 0.00 0.00 0.00 94 1008.7
20260905054204 61 81 0.0 0.0 0.00 0.00 0.00 94 1008.6
20260905053704 61 81 0.0 0.0 0.00 0.00 0.00 94 1008.6
20260905052704 61 81 0.0 0.0 0.00 0.00 0.00 93 1008.6
20260905052203 61 80 0.0 0.0 0.00 0.00 0.00 93 1008.6
20260905051204 61 81 0.0 0.0 0.00 0.00 0.00 93 1008.7
20260905045204 62 80 0.0 0.0 0.00 0.00 0.00 93 1008.6
20260905044704 62 81 0.0 0.0 0.00 0.00 0.00 92 1008.6
20260905044204 62 81 0.0 0.0 0.00 0.00 0.00 93 1008.5
20260905043704 62 80 0.0 0.0 0.00 0.00 0.00 93 1008.5
20260905043203 62 81 0.0 0.0 0.00 0.00 0.00 92 1008.5
20260905042704 62 81 0.0 0.0 0.00 0.00 0.00 92 1008.5
20260905041704 62 81 0.0 0.0 0.00 0.00 0.00 92 1008.8
20260905040703 63 80 0.0 0.0 0.00 0.00 0.00 92 1008.7
20260905035703 63 81 0.0 0.0 0.00 0.00 0.00 91 1008.6
20260905034703 63 81 0.0 0.0 0.00 0.00 0.00 91 1008.5
20260905034204 63 81 0.0 0.0 0.00 0.00 0.00 91 1008.6
20260905033203 63 80 0.0 0.0 0.00 0.00 0.00 91 1008.7
20260905032204 63 81 0.0 0.0 0.00 0.00 0.00 90 1008.6
20260905031703 64 81 0.0 0.0 0.00 0.00 0.00 90 1008.6
20260905031204 64 81 0.0 0.0 0.00 0.00 0.00 90 1008.6
20260905030703 64 81 0.0 0.0 0.00 0.00 0.00 90 1008.7
20260905025703 64 81 0.0 0.0 0.00 0.00 0.00 90 1008.9
20260905024203 64 81 0.0 0.0 0.00 0.00 0.00 89 1008.9
20260905023704 64 81 0.0 0.0 0.00 0.00 0.00 89 1008.9
20260905021704 65 81 0.0 0.0 0.00 0.01 0.00 88 1008.9
20260905020703 65 80 0.0 0.0 0.00 0.01 0.00 87 1009.0
20260905015703 65 80 0.0 0.0 0.00 0.01 0.00 87 1009.0
20260905015204 66 81 0.0 0.0 0.00 0.01 0.00 87 1009.0
20260905014704 66 81 0.0 0.0 0.00 0.01 0.00 87 1009.0
20260905013703 66 80 0.0 0.0 0.00 0.01 0.00 86 1009.0
20260905013204 66 81 0.0 0.0 0.00 0.01 0.00 88 1009.1
20260905011204 67 81 0.0 0.0 0.00 0.01 0.00 86 1009.1
20260905005705 68 81 0.0 0.0 0.00 0.01 0.00 84 1009.1
20260905005205 68 81 0.0 0.0 0.00 0.01 0.00 83 1009.0
20260905004205 69 81 0.0 0.0 0.00 0.01 0.00 84 1008.9
20260905002704 69 80 0.0 0.0 0.00 0.01 0.00 81 1008.9
20260905002205 69 81 0.0 0.0 0.00 0.01 0.00 81 1008.9
20260905001204 70 81 0.0 0.0 0.00 0.01 0.00 81 1008.8
20260904233205 72 80 0.0 1.7 0.00 0.01 0.00 80 1008.3
20260904232704 73 81 0.0 2.6 0.00 0.01 0.00 77 1008.3
20260904231204 74 74 0.0 0.0 0.00 0.01 0.00 78 1008.2
20260904225705 75 74 0.0 0.0 0.00 0.01 0.00 73 1008.2
20260904222704 78 74 0.0 0.0 0.00 0.01 0.00 69 1008.0
20260904222205 78 74 0.0 0.9 0.00 0.01 0.00 64 1008.0
20260904221205 78 74 0.0 0.9 0.00 0.01 0.00 64 1007.9
20260904220704 78 74 0.9 1.7 0.00 0.01 0.00 63 1007.9
20260904215704 78 76 0.9 2.6 0.00 0.01 0.00 65 1007.9
20260904215209 78 70 0.9 2.6 0.00 0.01 0.00 65 1007.9
20260904214204 77 117 0.0 0.9 0.00 0.01 0.00 65 1007.8
20260904213704 77 117 0.0 1.7 0.00 0.01 0.00 65 1007.8
20260904212205 77 236 0.9 2.6 0.00 0.01 0.00 69 1007.9
20260904211204 77 250 0.9 2.6 0.00 0.01 0.00 66 1007.9
20260904210705 78 252 0.9 5.2 0.00 0.01 0.00 66 1008.0
20260904205704 78 199 0.9 2.6 0.00 0.01 0.00 67 1007.9
20260904204704 78 230 0.0 2.6 0.00 0.01 0.00 67 1007.9
20260904204204 78 231 0.0 0.9 0.00 0.01 0.00 68 1007.9
20260904203705 79 231 0.0 2.6 0.00 0.01 0.00 65 1007.9
20260904201205 79 350 0.0 2.6 0.00 0.01 0.00 61 1008.1
20260904194705 80 293 0.9 2.6 0.00 0.01 0.00 60 1007.9
20260904193211 81 231 0.9 2.6 0.00 0.01 0.00 59 1007.9
20260904191705 81 38 0.9 4.3 0.00 0.01 0.00 57 1007.7
20260904191204 81 304 0.9 6.1 0.00 0.01 0.00 57 1007.7
20260904190704 81 78 1.7 6.1 0.00 0.01 0.00 59 1007.7
20260904190204 81 310 0.9 2.6 0.00 0.01 0.00 59 1007.7
20260904185204 81 301 0.9 1.7 0.00 0.01 0.00 61 1007.8
20260904183705 81 49 0.9 2.6 0.00 0.01 0.00 59 1008.0
20260904182705 81 214 1.7 5.2 0.00 0.01 0.00 59 1008.1
20260904180708 80 77 0.9 7.0 0.00 0.01 0.00 63 1008.1
20260904180204 80 251 0.9 2.6 0.00 0.01 0.00 62 1008.1
20260904175704 80 268 1.7 5.2 0.00 0.01 0.00 62 1008.1
20260904173704 80 345 0.9 2.6 0.00 0.01 0.00 62 1008.0
20260904173204 80 249 1.7 4.3 0.00 0.01 0.00 62 1008.1
20260904172705 80 334 1.7 4.3 0.00 0.01 0.00 63 1008.1
20260904170704 79 343 1.7 4.3 0.00 0.01 0.00 63 1008.4
20260904170204 79 233 0.9 2.6 0.00 0.01 0.00 66 1008.6
20260904164204 78 230 1.7 4.3 0.00 0.01 0.00 66 1008.5
20260904163704 78 254 1.7 4.3 0.00 0.01 0.00 69 1008.5
20260904162704 78 238 1.7 4.3 0.00 0.01 0.00 71 1008.4
20260904162205 78 243 2.6 5.2 0.00 0.01 0.00 69 1008.5
20260904161705 78 310 0.9 4.3 0.00 0.01 0.00 67 1008.6
20260904155204 77 66 1.7 5.2 0.00 0.01 0.00 71 1009.0
20260904154704 77 214 1.7 4.3 0.00 0.01 0.00 72 1009.0
20260904152704 76 59 0.9 4.3 0.00 0.01 0.00 77 1009.2
20260904151204 76 178 0.0 4.3 0.00 0.01 0.00 78 1009.2
20260904150704 75 79 0.9 4.3 0.00 0.01 0.00 79 1009.2
20260904145704 75 303 0.9 4.3 0.00 0.01 0.00 81 1009.2
20260904144704 74 247 0.9 2.6 0.00 0.01 0.00 82 1009.3
20260904144204 73 63 2.6 5.2 0.00 0.01 0.00 82 1009.4
20260904143705 73 54 0.9 4.3 0.00 0.01 0.00 85 1009.4
20260904143204 72 242 0.9 2.6 0.00 0.01 0.00 86 1009.5
20260904142204 71 67 0.9 2.6 0.00 0.01 0.00 90 1009.6
20260904141704 71 259 0.0 2.6 0.00 0.01 0.00 90 1009.6
20260904140204 70 240 1.7 4.3 0.00 0.01 0.00 93 1009.7
20260904135704 70 315 0.0 0.0 0.00 0.01 0.00 95 1009.7
20260904135205 69 313 0.0 2.6 0.00 0.01 0.00 96 1009.7
20260904133704 69 239 0.0 0.9 0.00 0.01 0.00 97 1009.7
20260904131204 67 128 0.0 0.9 0.00 0.01 0.00 98 1009.8
20260904130704 67 62 0.0 0.9 0.00 0.01 0.00 98 1009.9
20260904130204 67 62 0.0 0.9 0.00 0.01 0.00 98 1009.8
20260904125704 67 63 0.0 0.0 0.00 0.01 0.00 98 1009.9
20260904123704 67 63 0.0 0.0 0.00 0.01 0.00 99 1009.9
20260904122704 66 63 0.0 0.0 0.00 0.01 0.00 98 1009.9
20260904120204 66 63 0.0 1.7 0.00 0.01 0.00 98 1009.7
20260904113704 66 61 0.0 0.0 0.00 0.01 0.00 99 1009.9
20260904113204 66 61 0.0 0.0 0.00 0.01 0.00 98 1009.9
20260904112204 66 63 0.0 0.0 0.00 0.01 0.00 99 1009.8
20260904111704 66 63 0.0 0.0 0.00 0.01 0.00 99 1009.8
20260904111204 66 63 0.0 0.0 0.00 0.01 0.00 99 1009.8
20260904110704 66 63 0.0 0.0 0.00 0.01 0.00 98 1009.8
20260904110204 66 63 0.0 0.0 0.00 0.01 0.00 98 1009.7
20260904104204 66 63 0.0 0.0 0.00 0.01 0.00 99 1009.6
20260904103704 66 63 0.0 0.0 0.00 0.01 0.00 98 1009.4
20260904102704 66 63 0.0 0.0 0.00 0.01 0.00 98 1009.4
20260904101704 66 63 0.0 0.0 0.00 0.01 0.00 98 1009.5
20260904100704 66 65 0.0 0.0 0.00 0.01 0.00 98 1009.4
20260904100204 66 65 0.0 0.0 0.00 0.02 0.00 98 1009.3
20260904095704 66 65 0.0 0.0 0.00 0.02 0.00 98 1009.3
20260904094203 66 65 0.0 0.0 0.00 0.02 0.00 98 1009.4
20260904092204 66 65 0.0 0.0 0.00 0.03 0.00 98 1009.4
20260904090704 66 65 0.0 0.0 0.00 0.04 0.00 98 1009.3
20260904090204 66 65 0.0 0.0 0.00 0.04 0.00 98 1009.2
20260904085704 66 65 0.0 0.0 0.00 0.04 0.00 98 1009.3
20260904084203 66 65 0.0 0.0 0.00 0.04 0.00 98 1009.3
20260904083704 66 65 0.0 0.0 0.00 0.04 0.00 98 1009.2
20260904083203 66 65 0.0 0.0 0.00 0.04 0.00 98 1009.3
20260904082204 66 65 0.0 0.0 0.00 0.04 0.00 98 1009.5